This is the latest recevied weather packets stored in our database for station/object DC2ML-11. If no packets are shown the sender has not sent any weather packets the latest 10 day(s).
| Time | Temp. | Humidity | Pressure | Rain* | Wind** | Luminosity | Snow |
|---|---|---|---|---|---|---|---|
| 1777756295 | 20.56° C | 45% | 1015.3 hPa | - | - | - | - |
| 1777755399 | 21.11° C | 45% | 1015.4 hPa | - | - | - | - |
| 1777754499 | 21.11° C | 44% | 1015.6 hPa | - | - | - | - |
| 1777753599 | 21.11° C | 45% | 1015.7 hPa | - | - | - | - |
| 1777752699 | 21.11° C | 45% | 1015.7 hPa | - | - | - | - |
| 1777751799 | 21.11° C | 45% | 1016 hPa | - | - | - | - |
| 1777750899 | 21.67° C | 45% | 1016.9 hPa | - | - | - | - |
| 1777749999 | 21.67° C | 44% | 1016.7 hPa | - | - | - | - |
| 1777749099 | 21.67° C | 45% | 1016.8 hPa | - | - | - | - |
| 1777748199 | 21.67° C | 45% | 1017 hPa | - | - | - | - |
| 1777747298 | 22.22° C | 45% | 1017.4 hPa | - | - | - | - |
| 1777746398 | 22.22° C | 43% | 1015.8 hPa | - | - | - | - |
| 1777745498 | 22.22° C | 43% | 1015.1 hPa | - | - | - | - |
| 1777744598 | 22.22° C | 43% | 1015.1 hPa | - | - | - | - |
| 1777743698 | 22.22° C | 43% | 1015.5 hPa | - | - | - | - |
| 1777742798 | 21.67° C | 43% | 1015.3 hPa | - | - | - | - |
| 1777741898 | 21.67° C | 43% | 1015.3 hPa | - | - | - | - |
| 1777740998 | 21.67° C | 43% | 1015.6 hPa | - | - | - | - |
| 1777740097 | 21.67° C | 43% | 1015.5 hPa | - | - | - | - |
| 1777739197 | 21.67° C | 43% | 1015.8 hPa | - | - | - | - |
| 1777738297 | 21.67° C | 43% | 1016.2 hPa | - | - | - | - |
| 1777737397 | 21.67° C | 43% | 1016.5 hPa | - | - | - | - |
| 1777736497 | 21.67° C | 43% | 1016.7 hPa | - | - | - | - |
| 1777735597 | 21.11° C | 43% | 1017 hPa | - | - | - | - |
| 1777734697 | 21.11° C | 43% | 1017 hPa | - | - | - | - |
* Rain since midnight (hover to see other rain measurements)
** Current wind speed in m/s (hover to see current wind gust speed)